Weather in Regina

Canada     50°27′50″N   104°36′20″W
temp.,
°C
wind,
m/s
gust,
m/s
humid.,
%
clouds,
%
prec.,
mm/h
press.,
hPa
HPBL,
m
9 march, tue
tue900:00−2n3497100 0.8 101694
03:00−3nne4797100 3.1 1014232
06:00−2nne3595100 4.1 1013210
09:00−2n5997100 1.4 1014408
12:00−2nne6997100 3.0 1014367
15:00−2n4695100 1.1 1014415
18:00−3nw3696100 1.6 1016235
21:00−7nw339892 0.1 101831
10 march, wed
wed1000:00−10w229983 0.1 101821
03:00−10s339897 0.0 101726
06:00−8s349897 0.1 1016109
09:00−8sse469447 0.0 1016106
12:00−3s6109124 0.0 1015359
15:000ssw48900 0.0 1013427
18:00−2sw33890 0.0 101433
21:00−5nnw7109461 0.1 1017371
11 march, thu
thu1100:00−10nw5109580 0.2 1019321
03:00−14nw499799 0.1 1022208
06:00−15nw479799 0.1 1024214
09:00−18nw349536 0.0 1025112
12:00−15w239018 0.0 1024225
15:00−12wsw349056 0.0 1024310
18:00−13ssw129159 0.0 102421
21:00−15s128845 0.0 102520
12 march, fri
fri1200:00−16se119022 0.0 102620
03:00−15se228822 0.0 102820
06:00−15se238729 0.0 102920
09:00−13se33870 0.0 103042
12:00−8sse35860 0.0 1030171
15:00−5sse368621 0.0 1029211
18:00−5s348615 0.0 102938
21:00−6ssw23821 0.0 103023
13 march, sat
sat1300:00−6ssw237733 0.0 103024
03:00−6ssw237138 0.0 103022
06:00−5s337219 0.0 103025
09:00−3s34760 0.0 103050
12:00+1sse46800 0.0 1028140
15:00+2sse46860 0.0 1027110
18:00+2se45700 0.0 102576
21:00+1se59670 0.0 1025115